Regional Weather Roundup
Issued by NWS

Home | Current Version | Previous Version | Text Only | Print | Product List | Glossary On
Versions: 1 2 3 4 5 6 7 8 9 10 11 12 13 14 15 16 17 18 19 20 21 22 23 24 25 26 27
000
ASPQ40 PGUM 281512
RWRPQ
WEATHER ROUNDUP FOR THE MARIANAS AND MICRONESIA
NATIONAL WEATHER SERVICE TIYAN GU
100 AM CHST SAT JUL 29 2017

GUZ001>004-281600-
MARIANA ISLANDS-

CITY           SKY/WX    TMP DP  RH WIND       PRES   REMARKS
GUAM AIRPORT   CLEAR     81  79  94 S5        29.83F
ANDERSEN AFB   CLEAR     79  77  94 S8        29.84F
ROTA AIRPORT   NOT AVBL
TINIAN AP      NOT AVBL
SAIPAN AP      PTCLDY    84  79  84 SW6       29.79F HX  96

$$

PMZ161-281600-
REPUBLIC OF PALAU-

CITY           SKY/WX    TMP DP  RH WIND       PRES   REMARKS
KOROR AP       NOT AVBL
KOROR WSO      CLOUDY    81  79  94 CALM      29.86F

$$

PMZ171>174-281600-
FEDERATED STATES OF MICRONESIA-

CITY           SKY/WX    TMP DP  RH WIND       PRES   REMARKS
YAP AIRPORT    MOCLDY    84  77  79 VRB6      29.82F HX  94
CHUUK AP       MOCLDY    82  77  83 VRB6      29.81F HX  91
POHNPEI AP     NOT AVBL
POHNPEI WSO    PTCLDY    75  75 100 SE3       29.86F
KOSRAE AP      NOT AVBL

$$

PMZ181-281600-
REPUBLIC OF THE MARSHALL ISLANDS-

CITY           SKY/WX    TMP DP  RH WIND       PRES   REMARKS
KWAJALEIN AP   PTCLDY    82  77  83 E17       29.83S HX  91
MAJURO AP      NOT AVBL
MAJURO WSO     MOCLDY    82  75  78 E14       29.80F

$$





USA.gov is the U.S. government's official web portal to all federal, state and local government web resources and services.